Location: Kawakawa
(35.3830°S, 174.0670°E)
Time: 00:05:53
(UTC+13:00)

SL-08 R/B - Pass Details

Date: 24 January 2019
Orbit: 946 x 994 km, 83.0° (Epoch: 21 February)

Event Time Altitude Azimuth Distance (km) Brightness Sun altitude
Exits shadow 22:39:26 27° 360° (N) 1,726 5.4 -21.2°
Maximum altitude 22:42:56 84° 86° (E) 968 4.4 -21.7°
Drops below altitude 10° 22:49:09 10° 172° (S) 2,716 7.3 -22.6°
Sets 22:51:41 0° 172° (S) 3,675 8.1 -23.0°
